TimeEEST,TemperatureF,Dew PointF,Humidity,Sea Level PressureIn,VisibilityMPH,Wind Direction,Wind SpeedMPH,Gust SpeedMPH,PrecipitationIn,Events,Conditions,WindDirDegrees,DateUTC
12:20 AM,71.6,41.0,33,30.04,-9999.0,ENE,5.8,-,N/A,,Clear,70,2012-10-02 21:20:00
12:50 AM,71.6,41.0,33,30.04,-9999.0,Variable,1.2,-,N/A,,Clear,0,2012-10-02 21:50:00
1:20 AM,71.6,41.0,33,30.04,-9999.0,East,2.3,-,N/A,,Clear,80,2012-10-02 22:20:00
1:50 AM,69.8,42.8,38,30.04,-9999.0,SE,2.3,-,N/A,,Clear,130,2012-10-02 22:50:00
2:20 AM,77.0,41.0,28,30.04,-9999.0,WSW,8.1,-,N/A,,Clear,240,2012-10-02 23:20:00
3:00 AM,79,42,17,29.88,12,West,20.7,,,,Scattered Clouds,270,2012-10-03 00:00:00
3:20 AM,78.8,41.0,26,30.04,6.2,West,18.4,-,N/A,,Scattered Clouds,270,2012-10-03 00:20:00
3:50 AM,78.8,41.0,26,30.04,6.2,WNW,12.7,-,N/A,,Scattered Clouds,290,2012-10-03 00:50:00
4:20 AM,75.2,41.0,29,30.01,6.2,East,6.9,-,N/A,,Scattered Clouds,100,2012-10-03 01:20:00
4:50 AM,69.8,42.8,38,30.04,6.2,ESE,9.2,-,N/A,,Scattered Clouds,120,2012-10-03 01:50:00
5:20 AM,66.2,44.6,46,30.04,6.2,East,5.8,-,N/A,,Scattered Clouds,80,2012-10-03 02:20:00
5:50 AM,64.4,42.8,45,30.04,6.2,ESE,4.6,-,N/A,,Scattered Clouds,110,2012-10-03 02:50:00
6:20 AM,66.2,41.0,40,30.04,6.2,SE,4.6,-,N/A,,Scattered Clouds,130,2012-10-03 03:20:00
6:50 AM,64.4,41.0,42,30.04,6.2,West,3.5,-,N/A,,Scattered Clouds,280,2012-10-03 03:50:00
7:20 AM,66.2,41.0,40,30.04,6.2,Calm,Calm,-,N/A,,Scattered Clouds,0,2012-10-03 04:20:00
7:50 AM,71.6,39.2,31,30.04,6.2,West,4.6,-,N/A,,Mostly Cloudy,260,2012-10-03 04:50:00
8:20 AM,75.2,41.0,29,30.04,6.2,Variable,2.3,-,N/A,,Mostly Cloudy,0,2012-10-03 05:20:00
8:50 AM,78.8,41.0,26,30.06,6.2,Variable,2.3,-,N/A,,Mostly Cloudy,0,2012-10-03 05:50:00
9:00 AM,79,41,16,29.92,12,South,2.3,,,,Scattered Clouds,180,2012-10-03 06:00:00
9:20 AM,78.8,42.8,28,30.04,6.2,ENE,5.8,-,N/A,,Mostly Cloudy,70,2012-10-03 06:20:00
9:50 AM,80.6,44.6,28,30.04,6.2,East,4.6,-,N/A,,Mostly Cloudy,80,2012-10-03 06:50:00
10:20 AM,82.4,46.4,28,30.04,6.2,East,6.9,-,N/A,,Mostly Cloudy,90,2012-10-03 07:20:00
10:50 AM,84.2,42.8,23,30.04,6.2,ESE,5.8,-,N/A,,Scattered Clouds,120,2012-10-03 07:50:00
11:20 AM,86.0,44.6,23,30.04,6.2,Variable,4.6,-,N/A,,Scattered Clouds,0,2012-10-03 08:20:00
11:50 AM,86.0,44.6,23,30.04,6.2,East,8.1,-,N/A,,Scattered Clouds,100,2012-10-03 08:50:00
12:20 PM,87.8,42.8,21,30.01,6.2,ESE,5.8,-,N/A,,Scattered Clouds,120,2012-10-03 09:20:00
12:50 PM,91.4,42.8,18,30.01,6.2,ESE,5.8,-,N/A,,Scattered Clouds,110,2012-10-03 09:50:00
1:20 PM,86.0,44.6,23,30.01,4.3,WSW,31.1,44.9,N/A,Rain-Thunderstorm,Light Thunderstorms and Rain,250,2012-10-03 10:20:00
1:50 PM,80.6,51.8,37,30.01,6.2,NW,15.0,-,N/A,,Scattered Clouds,310,2012-10-03 10:50:00
2:20 PM,80.6,50.0,34,30.01,6.2,NW,12.7,-,N/A,Rain-Thunderstorm,Light Thunderstorms and Rain,310,2012-10-03 11:20:00
2:50 PM,78.8,44.6,30,29.98,6.2,Calm,Calm,-,N/A,,Mostly Cloudy,0,2012-10-03 11:50:00
3:00 PM,79,46,20,29.86,12,Calm,Calm,,,Thunderstorm,Light Thunderstorm,,2012-10-03 12:00:00
3:20 PM,82.4,55.4,39,29.98,6.2,North,4.6,-,N/A,,Mostly Cloudy,10,2012-10-03 12:20:00
3:50 PM,78.8,60.8,54,30.01,6.2,West,5.8,-,N/A,,Mostly Cloudy,260,2012-10-03 12:50:00
4:20 PM,80.6,50.0,34,30.01,6.2,West,9.2,-,N/A,Rain-Thunderstorm,Light Thunderstorms and Rain,280,2012-10-03 13:20:00
4:50 PM,80.6,53.6,39,29.98,6.2,NNW,4.6,-,N/A,,Mostly Cloudy,330,2012-10-03 13:50:00
5:20 PM,77.0,55.4,47,29.98,6.2,Calm,Calm,-,N/A,,Mostly Cloudy,0,2012-10-03 14:20:00
5:50 PM,77.0,53.6,44,29.98,6.2,Calm,Calm,-,N/A,,Mostly Cloudy,0,2012-10-03 14:50:00
6:20 PM,73.4,53.6,50,29.98,6.2,Calm,Calm,-,N/A,,Mostly Cloudy,0,2012-10-03 15:20:00
6:50 PM,73.4,59.0,61,29.95,6.2,Variable,2.3,-,N/A,,Mostly Cloudy,0,2012-10-03 15:50:00
7:20 PM,69.8,59.0,68,29.98,6.2,WSW,4.6,-,N/A,,Mostly Cloudy,250,2012-10-03 16:20:00
7:50 PM,69.8,59.0,68,29.95,6.2,WNW,2.3,-,N/A,,Mostly Cloudy,290,2012-10-03 16:50:00
8:20 PM,69.8,57.2,64,29.98,6.2,Calm,Calm,-,N/A,,Mostly Cloudy,0,2012-10-03 17:20:00
8:50 PM,68.0,55.4,64,29.95,6.2,Calm,Calm,-,N/A,,Mostly Cloudy,0,2012-10-03 17:50:00
9:00 PM,68,55,54,29.85,6,Calm,Calm,,,,Partly Cloudy,,2012-10-03 18:00:00
9:20 PM,68.0,57.2,68,29.95,-9999.0,WSW,4.6,-,N/A,,Clear,240,2012-10-03 18:20:00
9:50 PM,66.2,57.2,73,29.95,-9999.0,West,4.6,-,N/A,,Clear,270,2012-10-03 18:50:00
10:20 PM,64.4,55.4,73,29.95,-9999.0,WNW,4.6,-,N/A,,Clear,290,2012-10-03 19:20:00
10:50 PM,64.4,53.6,68,29.95,-9999.0,WNW,5.8,-,N/A,,Clear,300,2012-10-03 19:50:00
11:20 PM,64.4,53.6,68,29.95,-9999.0,Calm,Calm,-,N/A,,Clear,0,2012-10-03 20:20:00
11:50 PM,64.4,53.6,68,29.95,-9999.0,Calm,Calm,-,N/A,,Clear,0,2012-10-03 20:50:00